| time (UTC) | temp C | wind direction | speed KPH | gust KPH | rain 1hr cm | rain 24hr cm | rain mn cm | humidity % | barometer mb |
| 20260509030050 | 30 | 149 | 22.5 | 35.4 | 0.00 | 0.00 | 0.00 | 61 | 1008.5 |
| 20260509024549 | 31 | 140 | 24.1 | 43.5 | 0.00 | 0.00 | 0.00 | 59 | 1008.3 |
| 20260509023048 | 31 | 119 | 19.3 | 29.0 | 0.00 | 0.00 | 0.00 | 56 | 1008.1 |
| 20260509021548 | 32 | 135 | 20.9 | 45.1 | 0.00 | 0.00 | 0.00 | 54 | 1008.0 |
| 20260509020046 | 32 | 111 | 14.5 | 29.0 | 0.00 | 0.00 | 0.00 | 52 | 1007.6 |
| 20260509014546 | 32 | 101 | 17.7 | 37.0 | 0.00 | 0.00 | 0.00 | 51 | 1007.2 |
| 20260509013050 | 33 | 128 | 17.7 | 27.4 | 0.00 | 0.00 | 0.00 | 49 | 1007.2 |
| 20260509011556 | 33 | 117 | 16.1 | 24.1 | 0.00 | 0.00 | 0.00 | 47 | 1007.0 |
| 20260509010048 | 34 | 140 | 17.7 | 29.0 | 0.00 | 0.00 | 0.00 | 46 | 1006.8 |
| 20260509004600 | 35 | 126 | 17.7 | 25.7 | 0.00 | 0.00 | 0.00 | 46 | 1006.6 |
| 20260509003044 | 35 | 128 | 19.3 | 30.6 | 0.00 | 0.00 | 0.00 | 45 | 1006.3 |
| 20260509001543 | 35 | 96 | 17.7 | 27.4 | 0.00 | 0.00 | 0.00 | 45 | 1006.3 |
| 20260509000045 | 35 | 140 | 11.3 | 22.5 | 0.00 | 0.00 | 0.00 | 45 | 1006.2 |
| 20260508234541 | 36 | 137 | 16.1 | 27.4 | 0.00 | 0.00 | 0.00 | 44 | 1005.9 |
| 20260508233042 | 36 | 144 | 11.3 | 25.7 | 0.00 | 0.00 | 0.00 | 44 | 1005.8 |
| 20260508231541 | 36 | 150 | 17.7 | 30.6 | 0.00 | 0.00 | 0.00 | 43 | 1005.7 |
| 20260508230040 | 37 | 154 | 11.3 | 25.7 | 0.00 | 0.00 | 0.00 | 42 | 1005.7 |
| 20260508224638 | 36 | 153 | 14.5 | 27.4 | 0.00 | 0.00 | 0.00 | 42 | 1005.7 |
| 20260508223045 | 36 | 128 | 14.5 | 29.0 | 0.00 | 0.00 | 0.00 | 42 | 1005.7 |
| 20260508221540 | 36 | 126 | 12.9 | 30.6 | 0.00 | 0.00 | 0.00 | 43 | 1005.7 |
| 20260508220036 | 37 | 187 | 9.7 | 29.0 | 0.00 | 0.00 | 0.00 | 42 | 1005.7 |
| 20260508214538 | 37 | 100 | 16.1 | 35.4 | 0.00 | 0.00 | 0.00 | 42 | 1006.0 |
| 20260508213035 | 37 | 137 | 14.5 | 30.6 | 0.00 | 0.00 | 0.00 | 42 | 1006.0 |
| 20260508211534 | 37 | 103 | 12.9 | 27.4 | 0.00 | 0.00 | 0.00 | 41 | 1006.2 |
| 20260508210030 | 37 | 150 | 17.7 | 27.4 | 0.00 | 0.00 | 0.00 | 41 | 1006.4 |
| 20260508204532 | 37 | 115 | 9.7 | 35.4 | 0.00 | 0.00 | 0.00 | 43 | 1006.5 |
| 20260508203027 | 37 | 142 | 8.0 | 29.0 | 0.00 | 0.00 | 0.00 | 43 | 1006.7 |
| 20260508201526 | 37 | 125 | 17.7 | 32.2 | 0.00 | 0.00 | 0.00 | 44 | 1007.1 |
| 20260508200024 | 37 | 121 | 9.7 | 25.7 | 0.00 | 0.00 | 0.00 | 43 | 1007.1 |
| 20260508194519 | 37 | 123 | 11.3 | 27.4 | 0.00 | 0.00 | 0.00 | 44 | 1007.4 |
| 20260508193015 | 36 | 158 | 9.7 | 30.6 | 0.00 | 0.00 | 0.00 | 46 | 1008.0 |
| 20260508191514 | 36 | 130 | 19.3 | 29.0 | 0.00 | 0.00 | 0.00 | 45 | 1008.3 |
| 20260508190008 | 36 | 122 | 14.5 | 33.8 | 0.00 | 0.00 | 0.00 | 48 | 1008.5 |
| 20260508184506 | 36 | 128 | 17.7 | 27.4 | 0.00 | 0.00 | 0.00 | 48 | 1008.6 |
| 20260508183004 | 36 | 123 | 19.3 | 33.8 | 0.00 | 0.00 | 0.00 | 49 | 1009.2 |
| 20260508181608 | 35 | 138 | 9.7 | 29.0 | 0.00 | 0.00 | 0.00 | 51 | 1009.4 |
| 20260508180055 | 35 | 134 | 17.7 | 29.0 | 0.00 | 0.00 | 0.00 | 53 | 1009.6 |
| 20260508174555 | 35 | 134 | 16.1 | 37.0 | 0.00 | 0.00 | 0.00 | 53 | 1009.8 |
| 20260508173048 | 34 | 153 | 20.9 | 32.2 | 0.00 | 0.00 | 0.00 | 55 | 1010.1 |
| 20260508171546 | 33 | 118 | 14.5 | 32.2 | 0.00 | 0.00 | 0.00 | 56 | 1010.3 |
| 20260508170044 | 33 | 141 | 19.3 | 32.2 | 0.00 | 0.00 | 0.00 | 57 | 1010.5 |
| 20260508164541 | 33 | 121 | 19.3 | 32.2 | 0.00 | 0.00 | 0.00 | 58 | 1010.9 |
| 20260508161536 | 32 | 144 | 19.3 | 30.6 | 0.00 | 0.00 | 0.00 | 60 | 1011.5 |
| 20260508160056 | 32 | 96 | 19.3 | 33.8 | 0.00 | 0.00 | 0.00 | 61 | 1011.7 |
| 20260508154533 | 32 | 135 | 20.9 | 37.0 | 0.00 | 0.00 | 0.00 | 61 | 1011.8 |
| 20260508153029 | 31 | 117 | 19.3 | 37.0 | 0.00 | 0.00 | 0.00 | 64 | 1011.9 |
| 20260508151523 | 30 | 141 | 20.9 | 37.0 | 0.00 | 0.00 | 0.00 | 68 | 1012.0 |
| 20260508150022 | 29 | 140 | 20.9 | 33.8 | 0.00 | 0.00 | 0.00 | 71 | 1012.5 |
| 20260508144519 | 30 | 159 | 17.7 | 33.8 | 0.00 | 0.00 | 0.00 | 71 | 1012.5 |
| 20260508143017 | 29 | 115 | 20.9 | 37.0 | 0.00 | 0.00 | 0.00 | 74 | 1012.6 |
| 20260508141515 | 28 | 146 | 17.7 | 32.2 | 0.00 | 0.00 | 0.00 | 77 | 1012.6 |
| 20260508140010 | 27 | 134 | 19.3 | 33.8 | 0.00 | 0.00 | 0.00 | 80 | 1012.6 |
| 20260508134512 | 27 | 138 | 17.7 | 30.6 | 0.00 | 0.00 | 0.00 | 82 | 1012.4 |
| 20260508133014 | 27 | 118 | 16.1 | 24.1 | 0.00 | 0.00 | 0.00 | 84 | 1012.3 |
| 20260508131503 | 26 | 108 | 11.3 | 22.5 | 0.00 | 0.00 | 0.00 | 85 | 1012.3 |
| 20260508124556 | 25 | 84 | 6.4 | 19.3 | 0.00 | 0.00 | 0.00 | 88 | 1012.2 |
| 20260508123054 | 25 | 138 | 9.7 | 19.3 | 0.00 | 0.00 | 0.00 | 88 | 1011.9 |
| 20260508121604 | 25 | 111 | 11.3 | 19.3 | 0.00 | 0.00 | 0.00 | 88 | 1011.9 |
| 20260508120047 | 25 | 105 | 9.7 | 14.5 | 0.00 | 0.00 | 0.00 | 88 | 1011.6 |
| 20260508114543 | 25 | 102 | 9.7 | 16.1 | 0.00 | 0.00 | 0.00 | 88 | 1011.2 |
| 20260508113040 | 25 | 125 | 11.3 | 19.3 | 0.00 | 0.00 | 0.00 | 88 | 1011.0 |
| 20260508111539 | 25 | 150 | 9.7 | 16.1 | 0.00 | 0.00 | 0.00 | 88 | 1010.5 |
| 20260508110049 | 25 | 122 | 12.9 | 24.1 | 0.00 | 0.00 | 0.00 | 88 | 1010.3 |
| 20260508104536 | 25 | 128 | 14.5 | 20.9 | 0.00 | 0.00 | 0.00 | 88 | 1010.0 |
| 20260508103037 | 25 | 117 | 17.7 | 25.7 | 0.00 | 0.00 | 0.00 | 87 | 1010.0 |
| 20260508100033 | 25 | 112 | 11.3 | 20.9 | 0.00 | 0.00 | 0.00 | 87 | 1009.9 |
| 20260508094530 | 25 | 142 | 16.1 | 25.7 | 0.00 | 0.00 | 0.00 | 86 | 1009.6 |
| 20260508093029 | 26 | 117 | 16.1 | 24.1 | 0.00 | 0.00 | 0.00 | 86 | 1009.5 |
| 20260508091526 | 26 | 140 | 14.5 | 25.7 | 0.00 | 0.00 | 0.00 | 85 | 1009.7 |
| 20260508090024 | 26 | 127 | 12.9 | 24.1 | 0.00 | 0.00 | 0.00 | 85 | 1009.6 |
| 20260508084523 | 26 | 76 | 14.5 | 20.9 | 0.00 | 0.00 | 0.00 | 84 | 1009.7 |
| 20260508083104 | 26 | 121 | 12.9 | 24.1 | 0.00 | 0.00 | 0.00 | 84 | 1009.7 |
| 20260508081521 | 26 | 141 | 11.3 | 29.0 | 0.00 | 0.00 | 0.00 | 83 | 1009.6 |
| 20260508080016 | 26 | 129 | 12.9 | 20.9 | 0.00 | 0.00 | 0.00 | 83 | 1009.8 |
| 20260508074514 | 26 | 120 | 14.5 | 20.9 | 0.00 | 0.00 | 0.00 | 82 | 1010.0 |
| 20260508073012 | 27 | 135 | 17.7 | 25.7 | 0.00 | 0.00 | 0.00 | 82 | 1010.1 |
| 20260508071511 | 27 | 130 | 16.1 | 27.4 | 0.00 | 0.00 | 0.00 | 81 | 1010.3 |
| 20260508070009 | 27 | 128 | 16.1 | 24.1 | 0.00 | 0.00 | 0.00 | 80 | 1010.4 |
| 20260508064520 | 27 | 138 | 17.7 | 32.2 | 0.00 | 0.00 | 0.00 | 80 | 1010.6 |
| 20260508063002 | 27 | 140 | 20.9 | 25.7 | 0.00 | 0.00 | 0.00 | 79 | 1010.9 |
| 20260508061603 | 27 | 134 | 20.9 | 29.0 | 0.00 | 0.00 | 0.00 | 79 | 1011.0 |
| 20260508060107 | 28 | 138 | 17.7 | 29.0 | 0.00 | 0.00 | 0.00 | 78 | 1011.3 |
| 20260508054604 | 28 | 134 | 22.5 | 32.2 | 0.00 | 0.00 | 0.00 | 77 | 1011.5 |
| 20260508053102 | 28 | 134 | 19.3 | 30.6 | 0.00 | 0.00 | 0.00 | 76 | 1011.5 |
| 20260508051555 | 28 | 126 | 20.9 | 30.6 | 0.00 | 0.00 | 0.00 | 76 | 1011.7 |
| 20260508050057 | 28 | 130 | 24.1 | 35.4 | 0.00 | 0.00 | 0.00 | 75 | 1011.6 |
| 20260508044554 | 28 | 130 | 25.7 | 37.0 | 0.00 | 0.00 | 0.00 | 74 | 1011.6 |
| 20260508043054 | 29 | 127 | 19.3 | 32.2 | 0.00 | 0.00 | 0.00 | 73 | 1011.5 |
| 20260508041558 | 29 | 84 | 25.7 | 38.6 | 0.00 | 0.00 | 0.00 | 72 | 1011.6 |
| 20260508040055 | 30 | 134 | 27.4 | 41.8 | 0.00 | 0.00 | 0.00 | 70 | 1011.2 |
| 20260508034557 | 30 | 121 | 24.1 | 37.0 | 0.00 | 0.00 | 0.00 | 69 | 1011.1 |
| 20260508033055 | 30 | 123 | 24.1 | 33.8 | 0.00 | 0.00 | 0.00 | 68 | 1010.9 |
| 20260508031551 | 31 | 130 | 19.3 | 40.2 | 0.00 | 0.00 | 0.00 | 67 | 1010.6 |